Year,Month,Day,Hour,Minute,Value (Times are PST for temperature in C)
2018,01,19,00,00,7.50
2018,01,19,00,01,7.40
2018,01,19,00,02,7.40
2018,01,19,00,03,7.30
2018,01,19,00,04,7.30
2018,01,19,00,05,7.20
2018,01,19,00,06,7.20
2018,01,19,00,07,7.20
2018,01,19,00,08,7.10
2018,01,19,00,09,7.10
2018,01,19,00,10,7.10
2018,01,19,00,11,7.10
2018,01,19,00,12,7.10
2018,01,19,00,13,7.10
2018,01,19,00,14,7.00
2018,01,19,00,15,7.00
2018,01,19,00,16,7.10
2018,01,19,00,17,7.10
2018,01,19,00,18,7.10
2018,01,19,00,19,7.10
2018,01,19,00,20,7.10
2018,01,19,00,21,7.10
2018,01,19,00,22,7.10
2018,01,19,00,23,7.20
2018,01,19,00,24,7.20
2018,01,19,00,25,7.20
2018,01,19,00,26,7.20
2018,01,19,00,27,7.20
2018,01,19,00,28,7.30
2018,01,19,00,29,7.30
2018,01,19,00,30,7.30
2018,01,19,00,31,7.30
2018,01,19,00,32,7.30
2018,01,19,00,33,7.30
2018,01,19,00,34,7.30
2018,01,19,00,35,7.30
2018,01,19,00,36,7.30
2018,01,19,00,37,7.40
2018,01,19,00,38,7.40
2018,01,19,00,39,7.40
2018,01,19,00,40,7.40
2018,01,19,00,41,7.40
2018,01,19,00,42,7.40
2018,01,19,00,43,7.30
2018,01,19,00,44,7.30
2018,01,19,00,45,7.30
2018,01,19,00,46,7.30
2018,01,19,00,47,7.30
2018,01,19,00,48,7.40
2018,01,19,00,49,7.40
2018,01,19,00,50,7.40
2018,01,19,00,51,7.40
2018,01,19,00,52,7.40
2018,01,19,00,53,7.40
2018,01,19,00,54,7.30
2018,01,19,00,55,7.30
2018,01,19,00,56,7.30
2018,01,19,00,57,7.30
2018,01,19,00,58,7.30
2018,01,19,00,59,7.20
2018,01,19,01,00,7.20
2018,01,19,01,01,7.20
2018,01,19,01,02,7.20
2018,01,19,01,03,7.10
2018,01,19,01,04,7.10
2018,01,19,01,05,7.10
2018,01,19,01,06,7.10
2018,01,19,01,07,7.10
2018,01,19,01,08,7.10
2018,01,19,01,09,7.10
2018,01,19,01,10,7.10
2018,01,19,01,11,7.10
2018,01,19,01,12,7.00
2018,01,19,01,13,7.00
2018,01,19,01,14,7.00
2018,01,19,01,15,7.00
2018,01,19,01,16,7.00
2018,01,19,01,17,7.00
2018,01,19,01,18,7.00
2018,01,19,01,19,7.00
2018,01,19,01,20,6.90
2018,01,19,01,21,6.90
2018,01,19,01,22,6.90
2018,01,19,01,23,6.90
2018,01,19,01,24,6.90
2018,01,19,01,25,6.90
2018,01,19,01,26,6.90
2018,01,19,01,27,6.90
2018,01,19,01,28,6.90
2018,01,19,01,29,7.00
2018,01,19,01,30,7.00
2018,01,19,01,31,7.00
2018,01,19,01,32,7.10
2018,01,19,01,33,7.10
2018,01,19,01,34,7.20
2018,01,19,01,35,7.20
2018,01,19,01,36,7.30
2018,01,19,01,37,7.30
2018,01,19,01,38,7.30
2018,01,19,01,39,7.30
2018,01,19,01,40,7.30
2018,01,19,01,41,7.30
2018,01,19,01,42,7.20
2018,01,19,01,43,7.20
2018,01,19,01,44,7.20
2018,01,19,01,45,7.10
2018,01,19,01,46,7.10
2018,01,19,01,47,7.00
2018,01,19,01,48,7.00
2018,01,19,01,49,6.90
2018,01,19,01,50,6.90
2018,01,19,01,51,6.90
2018,01,19,01,52,6.80
2018,01,19,01,53,6.80
2018,01,19,01,54,6.70
2018,01,19,01,55,6.70
2018,01,19,01,56,6.60
2018,01,19,01,57,6.60
2018,01,19,01,58,6.60
2018,01,19,01,59,6.60
2018,01,19,02,00,6.70
2018,01,19,02,01,6.70
2018,01,19,02,02,6.70
2018,01,19,02,03,6.70
2018,01,19,02,04,6.70
2018,01,19,02,05,6.80
2018,01,19,02,06,6.80
2018,01,19,02,07,6.80
2018,01,19,02,08,6.80
2018,01,19,02,09,6.80
2018,01,19,02,10,6.80
2018,01,19,02,11,6.90
2018,01,19,02,12,6.90
2018,01,19,02,13,6.90
2018,01,19,02,14,7.00
2018,01,19,02,15,7.00
2018,01,19,02,16,7.00
2018,01,19,02,17,7.10
2018,01,19,02,18,7.10
2018,01,19,02,19,7.20
2018,01,19,02,20,7.20
2018,01,19,02,21,7.20
2018,01,19,02,22,7.30
2018,01,19,02,23,7.30
2018,01,19,02,24,7.30
2018,01,19,02,25,7.30
2018,01,19,02,26,7.40
2018,01,19,02,27,7.40
2018,01,19,02,28,7.40
2018,01,19,02,29,7.50
2018,01,19,02,30,7.50
2018,01,19,02,31,7.60
2018,01,19,02,32,7.60
2018,01,19,02,33,7.60
2018,01,19,02,34,7.70
2018,01,19,02,35,7.70
2018,01,19,02,36,7.70
2018,01,19,02,37,7.70
2018,01,19,02,38,7.70
2018,01,19,02,39,7.70
2018,01,19,02,40,7.80
2018,01,19,02,41,7.80
2018,01,19,02,42,7.80
2018,01,19,02,43,7.80
2018,01,19,02,44,7.80
2018,01,19,02,45,7.80
2018,01,19,02,46,7.80
2018,01,19,02,47,7.90
2018,01,19,02,48,7.90
2018,01,19,02,49,7.90
2018,01,19,02,50,7.90
2018,01,19,02,51,7.90
2018,01,19,02,52,7.90
2018,01,19,02,53,7.90
2018,01,19,02,54,7.90
2018,01,19,02,55,7.90
2018,01,19,02,56,7.90
2018,01,19,02,57,7.90
2018,01,19,02,58,7.80
2018,01,19,02,59,7.80
2018,01,19,03,00,7.80
2018,01,19,03,01,7.70
2018,01,19,03,02,7.60
2018,01,19,03,03,7.60
2018,01,19,03,04,7.50
2018,01,19,03,05,7.50
2018,01,19,03,06,7.50
2018,01,19,03,07,7.50
2018,01,19,03,08,7.50
2018,01,19,03,09,7.50
2018,01,19,03,10,7.50
2018,01,19,03,11,7.50
2018,01,19,03,12,7.50
2018,01,19,03,13,7.50
2018,01,19,03,14,7.50
2018,01,19,03,15,7.40
2018,01,19,03,16,7.40
2018,01,19,03,17,7.30
2018,01,19,03,18,7.20
2018,01,19,03,19,7.20
2018,01,19,03,20,7.10
2018,01,19,03,21,7.10
2018,01,19,03,22,7.10
2018,01,19,03,23,7.10
2018,01,19,03,24,7.10
2018,01,19,03,25,7.10
2018,01,19,03,26,7.20
2018,01,19,03,27,7.20
2018,01,19,03,28,7.30
2018,01,19,03,29,7.30
2018,01,19,03,30,7.40
2018,01,19,03,31,7.40
2018,01,19,03,32,7.40
2018,01,19,03,33,7.40
2018,01,19,03,34,7.50
2018,01,19,03,35,7.50
2018,01,19,03,36,7.50
2018,01,19,03,37,7.60
2018,01,19,03,38,7.60
2018,01,19,03,39,7.60
2018,01,19,03,40,7.70
2018,01,19,03,41,7.70
2018,01,19,03,42,7.80
2018,01,19,03,43,7.80
2018,01,19,03,44,7.90
2018,01,19,03,45,7.90
2018,01,19,03,46,7.90
2018,01,19,03,47,8.00
2018,01,19,03,48,8.00
2018,01,19,03,49,8.00
2018,01,19,03,50,8.10
2018,01,19,03,51,8.10
2018,01,19,03,52,8.10
2018,01,19,03,53,8.10
2018,01,19,03,54,8.10
2018,01,19,03,55,8.10
2018,01,19,03,56,8.10
2018,01,19,03,57,8.20
2018,01,19,03,58,8.20
2018,01,19,03,59,8.20
2018,01,19,04,00,8.20
2018,01,19,04,01,8.20
2018,01,19,04,02,8.20
2018,01,19,04,03,8.20
2018,01,19,04,04,8.20
2018,01,19,04,05,8.20
2018,01,19,04,06,8.20
2018,01,19,04,07,8.10
2018,01,19,04,08,8.10
2018,01,19,04,09,8.10
2018,01,19,04,10,8.10
2018,01,19,04,11,8.10
2018,01,19,04,12,8.10
2018,01,19,04,13,8.10
2018,01,19,04,14,8.10
2018,01,19,04,15,8.10
2018,01,19,04,16,8.20
2018,01,19,04,17,8.20
2018,01,19,04,18,8.20
2018,01,19,04,19,8.10
2018,01,19,04,20,8.00
2018,01,19,04,21,7.80
2018,01,19,04,22,7.70
2018,01,19,04,23,7.50
2018,01,19,04,24,7.40
2018,01,19,04,25,7.30
2018,01,19,04,26,7.20
2018,01,19,04,27,7.10
2018,01,19,04,28,7.10
2018,01,19,04,29,7.00
2018,01,19,04,30,6.90
2018,01,19,04,31,6.90
2018,01,19,04,32,6.90
2018,01,19,04,33,6.90
2018,01,19,04,34,6.90
2018,01,19,04,35,6.90
2018,01,19,04,36,6.90
2018,01,19,04,37,6.90
2018,01,19,04,38,6.90
2018,01,19,04,39,6.90
2018,01,19,04,40,6.90
2018,01,19,04,41,6.90
2018,01,19,04,42,7.00
2018,01,19,04,43,7.00
2018,01,19,04,44,7.00
2018,01,19,04,45,6.90
2018,01,19,04,46,6.90
2018,01,19,04,47,6.90
2018,01,19,04,48,6.90
2018,01,19,04,49,6.90
2018,01,19,04,50,6.90
2018,01,19,04,51,6.90
2018,01,19,04,52,6.90
2018,01,19,04,53,6.90
2018,01,19,04,54,6.90
